Flag for Canada Weather past 2 weeks in Colchester County, Nova Scotia, Canada

Now
16 °F

Sunny.


Feels Like: 2 °F
Forecast: -1 / 15 °F
Wind: 13 mph from Northwest

Location: Halifax International Airport

Current Time: Mar 6, 2015 at 2:31:13 PM

Latest Report: Mar 6, 2015 at 1:00 PM


Visibility: 15 mi

Pressure: 30.32 "Hg

Humidity: 37%

Dew point: -6 °F

Location of Colchester CountyLocation

Historic Weather in Colchester County — Graph

°F

Colchester County temperature yesterday

Maximum temperature yesterday: 32 °F (at 12:00 AM)
Minimum temperature yesterday: 12 °F (at 11:00 PM)
Average temperature yesterday: 26 °F

Past Weeks' High & Low Weather Summary

 TemperatureHumidityPressure
High41 °F (Feb 22, 8:00 AM)100% (Feb 19, 8:00 PM)30.64 "Hg (Feb 19, 8:00 PM)
Low-8 °F (Feb 24, 6:00 AM)36% (Feb 28, 4:00 PM)29.36 "Hg (Feb 19, 10:00 PM)
Average20 °F73%30.00 "Hg
* Reported Feb 19 1:00 PM — Mar 6 1:00 PM, Colchester County, Weather by CustomWeather, © 2015

Note: Actual official high and low records may vary slightly from our data, if they occured in-between our weather recording intervals... More about our weather records

Advertising

Colchester County weather history for previous 24 hours

 ConditionsComfort  
Time TempWeatherWind HumidityBarometerVisibility
1:00 PM
Fri, Mar 6
16 °FSunny.13 mph37%30.32 "Hg15 mi
12:00 PM14 °FSunny.9 mph41%30.33 "Hg15 mi
11:00 AM12 °FSunny.10 mph48%30.33 "Hg15 mi
10:00 AM9 °FSunny.10 mph61%30.33 "Hg15 mi
9:00 AM7 °FSunny.12 mph61%30.31 "Hg15 mi
8:00 AM3 °FSunny.13 mph66%30.28 "Hg15 mi
7:00 AM1 °FPassing clouds.14 mph65%30.25 "Hg15 mi
6:00 AM1 °FClear.12 mph65%30.22 "Hg15 mi
5:00 AM3 °FClear.9 mph60%30.20 "Hg15 mi
4:00 AM7 °FOvercast.12 mph56%30.18 "Hg14 mi
3:00 AM7 °FOvercast.15 mph56%30.15 "Hg15 mi
2:00 AM9 °FPassing clouds.15 mph51%30.13 "Hg15 mi
1:00 AM10 °FOvercast.16 mph47%30.10 "Hg15 mi
12:00 AM12 °FOvercast.18 mph44%30.07 "Hg15 mi
11:00 PM
Thu, Mar 5
12 °FOvercast.14 mph48%30.08 "Hg15 mi
10:00 PM14 °FOvercast.13 mph41%30.04 "Hg15 mi
9:00 PM14 °FOvercast.17 mph44%30.01 "Hg15 mi
8:00 PM16 °FOvercast.17 mph48%29.98 "Hg15 mi
7:00 PM19 °FOvercast.16 mph49%29.94 "Hg15 mi
6:00 PM21 °FOvercast.15 mph54%29.92 "Hg15 mi
5:00 PM21 °FOvercast.17 mph58%29.89 "Hg15 mi
4:00 PM25 °FOvercast.22 mph50%29.85 "Hg15 mi
3:00 PM25 °FOvercast.20 mph42%29.83 "Hg15 mi
2:00 PM25 °FOvercast.21 mph39%29.82 "Hg15 mi
Weather by CustomWeather, © 2015

See weather overviewHow to use our weather pages